Regional Weather Roundup
Issued by NWS Charleston, SC

Current Version | Previous Version | Graphics & Text | Print | Product List | Glossary On
Versions: 1 2 3 4 5 6 7 8 9 10 11 12 13 14 15 16 17 18 19 20 21 22 23 24 25 26 27 28 29 30 31 32 33 34 35 36 37 38 39 40 41 42 43 44 45 46 47 48 49 50
000
ASUS42 KCHS 300927
RWRCHS

REGIONAL WEATHER ROUNDUP
NATIONAL WEATHER SERVICE CHARLESTON SC
500 AM EDT SUN APR 30 2017

NOTE: "FAIR" INDICATES FEW OR NO CLOUDS BELOW 12,000 FEET WITH NO
SIGNIFICANT WEATHER AND/OR OBSTRUCTIONS TO VISIBILITY.

NOT ALL STATIONS ARE QUALITY CONTROLLED. USE DATA WITH CAUTION...
ESPECIALLY DEWPOINT OBSERVATIONS.

SCZ027-030-031-034>040-042>050-301000-
...SOUTHEAST SOUTH CAROLINA...

CITY           SKY/WX    TMP DP  RH WIND       PRES   REMARKS
N CHARLESTON   MOCLDY    73  69  87 S9        30.16S
WATERFRONT PRK   N/A     74  72  93 S7        30.14F
JOHNS ISLAND   FAIR      73  72  94 SE3       30.16S
PINOPOLIS        N/A     72  72 100 VRB3      30.06F
MONCKS CORNER  FAIR      70  68  94 S3        30.16R FOG
SUMMERVILLE    FAIR      72  70  94 SE3       30.16S
BEAUFORT MCAS  CLOUDY    76  74  93 SE8       30.15S
BEAUFORT ARPT  PTSUNNY   73  70  88 SE3       30.15S
HILTON HEAD IS PTCLDY    75  73  94 SE7       30.16S
WALTERBORO     CLOUDY    70  70 100 SE6       30.16S
ALLENDALE      CLOUDY    70  70 100 CALM      30.13F FOG

...SOUTHERN MIDLANDS AND PEE DEE...

CITY           SKY/WX    TMP DP  RH WIND       PRES   REMARKS
GEORGETOWN     FAIR      70  70 100 SE3       30.18S
KINGSTREE      FAIR      68  64  88 CALM      30.16S FOG
ORANGEBURG     CLOUDY    72  70  93 S8        30.15S
BARNWELL       CLOUDY    73  72  94 S6        30.14F
AIKEN          CLOUDY    70  68  94 SE8       30.17S
MANNING        PTSUNNY   70  68  94 SW10      30.16R
COLUMBIA       CLOUDY    73  69  87 CALM      30.13S
SUMTER         MOCLDY    71  68  90 S7        30.14R
FLORENCE       CLOUDY    70  70 100 S6        30.17R
MYRTLE BEACH   CLOUDY    74  71  91 S12       30.18
N MYRTLE BEACH CLOUDY    73  72  96 S9        30.18R

$$

GAZ063-065-086>088-099>101-113>116-118-119-134>141-150-301000-
...SOUTHEAST GEORGIA...

CITY           SKY/WX    TMP DP  RH WIND       PRES   REMARKS
SAVANNAH ARPT  CLOUDY    74  68  81 S8        30.14S
HUNTER AAF     CLOUDY    74  74 100 SE8       30.12S FOG
FORT STEWART   CLOUDY    71  68  90 SE3       30.12S
STATESBORO     MOCLDY    70  70 100 CALM      30.13S
SYLVANIA       FOG      N/A N/A N/A CALM      30.15R VSB 3/4
CLAXTON        FAIR     N/A N/A N/A CALM      30.13S

...CSRA...CENTRAL AND FAR SOUTHEAST GEORGIA...

CITY           SKY/WX    TMP DP  RH WIND       PRES   REMARKS
THOMSON        CLOUDY    70  67  88 SW12      30.16F
AUGUSTA-BUSH   CLOUDY    73  70  90 SE7       30.12S FOG
AUGUSTA-DANIEL CLOUDY    72  67  84 SE7       30.13F
SWAINSBORO     CLOUDY    72  70  94 S8        30.13F
VIDALIA        CLOUDY    72  70  94 S5        30.12F
EASTMAN        CLOUDY    74  64  71 S10       30.12S
HAZLEHURST     PTSUNNY   73  73 100 S7        30.10F
ALMA           CLOUDY    71  70  96 SE7       30.11S
WAYCROSS       CLOUDY    74  74 100 S6        30.11F
JESUP          FAIR      70  64  83 CALM      30.13S
BAXLEY         FAIR      72  72 100 S8        30.11F
BRUNSWICK      MOCLDY    75  73  94 SE8G16    30.14S
SAINT SIMONS   PTCLDY    76  71  85 SE10      30.13S

$$

SCZ027-028-034-036>038-045-046-048>050-GAZ119-141-301000-
...LAKE AND SUPPLEMENTAL COASTAL OBSERVATIONS...

STATION/POSITION TIME  TEMP    WIND        PRES    WAVE   SWELL
                       AIR SEA DIR/SP/G            HT/PER HT/PER/DIR
                 (UTC) (F)     (DEG/KT/KT) (MB)    (FT/S) (FT/S/D)
WINYAH BAY       0845   73     160/  5     1021.0S
LAKE MURRAY      0920   72     160/  9/ 12 1019.6
ACE BASIN NERRS  0830   74     150/  2     1021.0S
FORT PULASKI     0900   74 77  160/  7/ 10 1021.0
SAPELO ISLAND    0830   75     150/  8     1020.0S

$$

ANZ835-935-AMZ111-154-330-350-352-354-370-450-454-472-301000-
...C-MAN AND BUOY OBSERVATIONS...

STATION/POSITION TIME  TEMP    WIND        PRES    WAVE   SWELL
                       AIR SEA DIR/SP/G            HT/PER HT/PER/DIR
                 (UTC) (F)     (DEG/KT/KT) (MB)    (FT/S) (FT/S/D)
BUOY 41004       0910   76 75  170/ 10/ 12 1021.5
BUOY 41008       0850   74 74  140/  8/ 10 1020.4R   3/ 8   2/120/ 8
FOLLY BEACH CMAN 0900   75     170/  8/  9 1021.9S
CAPERS NEARSHORE 0908   76 75  180/ 10/ 12 1021.4F
FRIPP NEARSHORE  0908   75 75  160/ 10/ 14 1020.8S


STATION/POSITION TIME  TEMP    WIND        PRES    WAVE   SWELL
                       AIR SEA DIR/SP/G            HT/PER HT/PER/DIR
                 (UTC) (F)     (DEG/KT/KT) (MB)    (FT/S) (FT/S/D)
5E ST. MARYS GA  0900      75                N/A     3/ 5
FRYING PAN BUOY  0910   75 74  180/ 10/ 12 1022.4
BUOY 41025       0850   76 75  220/ 17/ 21 1021.9F   3/ 4   2/160/ 7
CAPE LOOKOUT NC  0900   72     210/  7/  8 1022.4S
BUOY 41002       0850   74 76  160/ 10/ 10 1024.3S   3/ 6   3/170/ 6
BUOY 41010       0910   77 78  120/ 17/ 21 1021.0
ST AUGUSTINE FL  0900   76 77  150/ 15/ 17 1021.0S


$$




USA.gov is the U.S. government's official web portal to all federal, state and local government web resources and services.